GEESAT-6 10

Last updated on Mon Oct 20 2025 00:02:06 GMT+0000 (Coordinated Universal Time)

1 65722U 25214L 25292.28527659 .00005301 00000+0 61675-3 0 9996 2 65722 49.9897 346.1574 0010818 23.6390 336.5044 14.86581150 3727
UTC large
Height (km)
Speed (km/s)
/
Latitude / Longitude
Inclination (degrees)
Orbital Period (minutes)
Azimuth
Elevation
Range (km)
Doppler Factor

Next 0 passes for location: London (51.5072 / 0.1276)

Sorry there are no passes over London.